User: anonymous   Login
Location: Sungai Anya
(2.6167°N, 114.0500°E)
Time: 02:37:43
(UTC+00:00)
Language:

Meteor 1-4 Rocket - Orbit

View from above orbital plane
View from above orbital plane
View from above satellite
View from above satellite

Ground track
Ground track

The orbit data is extracted from the following two-line orbital elements,

1 04394U 70037B   22020.57879122  .00004072  00000-0  12906-3 0  9998
2 04394  81.2398 199.4332 0037487 138.3274 222.0831 15.31740889821815
Epoch (UTC): 20 January 2022 13:53:27
Eccentricity: 0.0037487
inclination: 81.2398°
perigee height: 445 km
apogee height: 496 km
right ascension of ascending node: 199.4332°
argument of perigee: 138.3274°
revolutions per day: 15.31740889
mean anomaly at epoch: 222.0831°
orbit number at epoch: 82181

The dashed part of the orbit path shows where the satellite is in the earth's shadow,  

DLR